Weather History for Fort Myers Airport, FL

Change the Weather History Date:

Saturday, January 26, 2013

  Actual Average Record
Temperature  
Mean Temperature 65 °F -  
Max Temperature 78 °F 73 °F 86 °F (1974)
Min Temperature 52 °F 52 °F 34 °F (2001)
Growing Degree Days 15 (Base 50)    
Moisture  
Dew Point 47 °F    
Average Humidity 58    
Maximum Humidity 84    
Minimum Humidity 28    
Precipitation  
Precipitation 0.00 in - - ()
Sea Level Pressure  
Sea Level Pressure 30.22 in    
Wind  
Wind Speed 3 mph (NNE)    
Max Wind Speed 9 mph    
Max Gust Speed -    
Visibility 10 miles    
Events      
Averages and records for this station are not official NWS values.
T = Trace of Precipitation, MM = Missing Value Source: NWS Daily Summary

Daily Weather History Graph

Daily Weather History Graph

Search for Another Location

Airport:

Trip Planner

Search our weather history database for the weather conditions in past years. The results will help you decide how hot, cold, wet, or windy it might be!

Date:

Astronomy

Jan. 26, 2013 Rise Set
Actual Time 7:14 AM EST 6:05 PM EST
Civil Twilight 6:49 AM EST 6:29 PM EST
Nautical Twilight 6:21 AM EST 6:57 PM EST
Astronomical Twilight 5:54 AM EST 7:25 PM EST
Moon 5:54 PM EST (1/26) 6:34 AM EST (1/26)
Length of Visible Light 11h 39m
Length of Day
10h 50m
Full, 100% of the Moon is Illuminated
Jan 26
Full
Jan 26
Full
Feb 3
Last Quarter
Feb 10
New
Feb 17
First Quarter

Hourly Weather History & Observations

Time (EST) Temp. Dew Point Humidity Pressure Visibility Wind Dir Wind Speed Gust Speed Precip Events Conditions
12:53 AM 55.9 °F 46.9 °F 72% 30.23 in 10.0 mi Calm Calm - N/A   Clear
1:53 AM 55.0 °F 46.0 °F 72% 30.23 in 10.0 mi Calm Calm - N/A   Clear
2:53 AM 55.0 °F 46.0 °F 72% 30.22 in 10.0 mi NE 3.5 mph - N/A   Clear
3:53 AM 54.0 °F 46.9 °F 77% 30.22 in 10.0 mi North 3.5 mph - N/A   Clear
4:53 AM 53.1 °F 46.0 °F 77% 30.22 in 10.0 mi Calm Calm - N/A   Clear
5:53 AM 52.0 °F 46.0 °F 80% 30.23 in 10.0 mi NE 4.6 mph - N/A   Clear
6:53 AM 52.0 °F 46.0 °F 80% 30.24 in 10.0 mi NE 4.6 mph - N/A   Clear
7:53 AM 53.1 °F 46.9 °F 80% 30.25 in 9.0 mi Calm Calm - N/A   Clear
8:53 AM 57.9 °F 48.9 °F 72% 30.26 in 10.0 mi ENE 3.5 mph - N/A   Clear
9:53 AM 66.9 °F 46.0 °F 47% 30.28 in 10.0 mi NE 6.9 mph - N/A   Clear
10:53 AM 71.1 °F 46.9 °F 42% 30.27 in 10.0 mi North 5.8 mph - N/A   Clear
11:53 AM 73.9 °F 46.9 °F 38% 30.26 in 10.0 mi Variable 5.8 mph - N/A   Clear
12:53 PM 75.9 °F 44.1 °F 32% 30.22 in 10.0 mi North 9.2 mph - N/A   Clear
1:53 PM 77.0 °F 42.1 °F 29% 30.19 in 10.0 mi North 8.1 mph - N/A   Clear
2:53 PM 77.0 °F 42.1 °F 29% 30.17 in 10.0 mi North 8.1 mph - N/A   Clear
3:53 PM 78.1 °F 43.0 °F 29% 30.17 in 10.0 mi Variable 4.6 mph - N/A   Clear
4:53 PM 78.1 °F 42.1 °F 28% 30.17 in 10.0 mi NE 3.5 mph - N/A   Clear
5:53 PM 75.0 °F 43.0 °F 32% 30.18 in 10.0 mi NNE 3.5 mph - N/A   Clear
6:53 PM 66.9 °F 50.0 °F 54% 30.19 in 10.0 mi NW 4.6 mph - N/A   Clear
7:53 PM 64.9 °F 50.0 °F 58% 30.20 in 10.0 mi Calm Calm - N/A   Clear
8:53 PM 60.1 °F 50.0 °F 69% 30.22 in 10.0 mi Calm Calm - N/A   Clear
9:53 PM 59.0 °F 50.0 °F 72% 30.22 in 10.0 mi Calm Calm - N/A   Clear
10:53 PM 60.1 °F 52.0 °F 75% 30.22 in 10.0 mi North 3.5 mph - N/A   Clear
11:53 PM 55.9 °F 51.1 °F 84% 30.24 in 10.0 mi ENE 6.9 mph - N/A   Clear